Powrót do katalogu

COSMOS 1275 DEB

AktywnyPO
NORAD 12714·DEBRIS·🇷🇺 Russia

Wystrzelony Jun 4, 1981 z Plesetsk Cosmodrome

Loading…

Następne Przeloty (najbliższe 24 godziny)

TLE

ŚwieżeSource: Space-Track

Epoka: Sep 14, 2026, 11:33 UTC

1 12714U 81053BJ  26257.48191988  .00000312  00000-0  38127-3 0  9992
2 12714  82.9686 273.0501 0124122 310.0725  48.9589 13.59914053229033

Śledź COSMOS 1275 DEB w czasie rzeczywistym z AllMySat

Download on the App Store